Stations météo

réclame
Mon MeteoGroup
Helsingborg, Suède (2611): Température de l'air & dewpoint: 14.06.2019 00:00:00 - 20.06.2019 00:00:00 (CEST)Helsingborg, Suède (2611): Vitesse du vent & gusts: 14.06.2019 00:00:00 - 20.06.2019 00:00:00 (CEST)Helsingborg, Suède (2611): Direction du vent: 14.06.2019 00:00:00 - 20.06.2019 00:00:00 (CEST)Helsingborg, Suède (2611): reduced air pressure: 14.06.2019 00:00:00 - 20.06.2019 00:00:00 (CEST)Helsingborg, Suède (2611): visibility: 14.06.2019 00:00:00 - 20.06.2019 00:00:00 (CEST)Helsingborg, Suède (2611): Quantités de précipitations: 14.06.2019 00:00:00 - 20.06.2019 00:00:00 (CEST)
Date & Time tt [°C] td [°C] ff [km/h] ff [knt] fx [km/h] fx [knt] dd ppp [hPa] vv [km] rr [mm]
20.06.2019 00:00:00 19,8 15,5 13 7 37 20 S 1008,2 39 0,0
19.06.2019 23:00:00 19,2 15,3 9 5 27 14 ESE 1007,3 43 0,0
19.06.2019 22:00:00 19,4 15,5 9 5 20 11 ESE 1007,3 42 0,0
19.06.2019 21:00:00 20,9 14,5 5 3 17 9 SE 1007,4 47 0,0
19.06.2019 20:00:00 22,6 14,2 4 2 22 12 SE 1007,5 47 0,0
19.06.2019 19:00:00 24,5 13,7 14 7 27 14 SE 1007,9 44 0,0
19.06.2019 18:00:00 25,7 12,9 11 6 29 15 SSE 1008,5 32 0,0
19.06.2019 17:00:00 26,3 12,7 14 7 31 17 SSE 1008,5 34 0,0
19.06.2019 16:00:00 26,6 13,7 18 10 33 18 S 1009,2 36 0,0
19.06.2019 15:00:00 26,2 15,3 20 11 34 19 S 1009,7 27 0,0
19.06.2019 14:00:00 26,1 15,8 15 8 31 17 S 1010,1 30 0,0
19.06.2019 13:00:00 24,0 15,5 16 9 24 13 S 1010,5 27 0,0
19.06.2019 12:00:00 23,3 14,8 14 7 25 14 S 1010,8 34 0,0
19.06.2019 11:00:00 23,4 15,2 13 7 27 15 S 1011,0 33 0,0
19.06.2019 10:00:00 23,1 15,7 9 5 19 11 S 1011,2 34 0,0
19.06.2019 09:00:00 19,9 15,5 0 0 12 7 N 1011,4 40 0,0
19.06.2019 08:00:00 19,3 15,6 0 0 0 0 N 1011,6 31 0,0
19.06.2019 07:00:00 17,5 14,9 0 0 9 5 N 1011,6 42 0,0
19.06.2019 06:00:00 16,1 14,1 0 0 7 4 N 1012,0 28 0,0
19.06.2019 05:00:00 16,3 14,3 0 0 9 5 N 1012,2 32 0,0
19.06.2019 04:00:00 16,8 14,6 4 2 16 9 SE 1012,3 36 0,0
19.06.2019 03:00:00 17,9 14,8 11 6 22 12 S 1012,9 35 0,0
19.06.2019 02:00:00 18,0 13,9 7 4 21 12 SE 1013,3 50 0,0
19.06.2019 01:00:00 18,1 14,6 6 4 18 10 SSE 1014,0 44 0,0
19.06.2019 00:00:00 18,1 14,6 9 5 23 12 S 1014,4 43 0,0
18.06.2019 23:00:00 18,9 13,5 8 5 20 11 SSE 1014,1 48 0,0
18.06.2019 22:00:00 19,0 14,3 6 4 16 9 SE 1014,1 50 0,0
18.06.2019 21:00:00 20,4 14,1 2 1 17 9 SE 1014,1 50 0,0
18.06.2019 20:00:00 22,2 14,1 6 4 22 12 SE 1014,3 49 0,0
18.06.2019 19:00:00 23,6 14,6 9 5 23 12 SE 1014,6 41 0,0
18.06.2019 18:00:00 24,5 14,3 11 6 30 16 SSE 1014,8 38 0,0
18.06.2019 17:00:00 24,6 13,8 14 8 30 16 S 1015,3 31 0,0
18.06.2019 16:00:00 24,7 13,0 20 11 34 19 S 1015,9 34 0,0
18.06.2019 15:00:00 25,2 12,8 16 9 36 19 S 1016,6 31 0,0
18.06.2019 14:00:00 24,9 13,8 17 9 31 17 S 1017,0 33 0,0
18.06.2019 13:00:00 23,6 13,7 14 8 31 17 SE 1017,4 41 0,0
18.06.2019 12:00:00 23,1 13,3 11 6 28 15 SE 1017,7 47 0,0
18.06.2019 11:00:00 21,4 13,1 13 7 25 13 SE 1018,1 38 0,0
18.06.2019 10:00:00 21,4 13,8 10 5 26 14 S 1018,5 32 0,0
18.06.2019 09:00:00 20,0 13,7 11 6 21 11 SE 1018,9 36 0,0
18.06.2019 08:00:00 18,1 13,4 8 4 19 10 SSE 1019,1 41 0,0
18.06.2019 07:00:00 16,0 12,7 8 4 14 8 SSE 1019,3 34 0,0
18.06.2019 06:00:00 13,9 12,1 4 2 16 8 SSE 1019,4 35 0,0
18.06.2019 05:00:00 12,8 11,5 5 3 11 6 SE 1019,8 20 0,0
18.06.2019 04:00:00 12,5 11,4 0 0 0 0 N 1020,0 18 0,0
18.06.2019 03:00:00 13,1 12,0 0 0 6 3 N 1020,2 20 0,0
18.06.2019 02:00:00 13,4 12,3 3 2 7 4 SE 1020,2 17 0,0
18.06.2019 01:00:00 13,7 12,6 4 2 6 4 ESE 1020,3 18 0,0
18.06.2019 00:00:00 14,3 13,0 0 0 6 3 N 1020,4 22 0,0
17.06.2019 23:00:00 15,4 13,6 3 2 6 3 ESE 1020,3 36 0,0
17.06.2019 22:00:00 16,6 13,1 0 0 5 3 N 1020,4 50 0,0
17.06.2019 21:00:00 18,5 12,7 3 2 8 5 SSW 1020,3 50 0,0
17.06.2019 20:00:00 21,4 11,7 3 2 14 8 WNW 1020,3 50 0,0
17.06.2019 19:00:00 23,0 12,9 4 2 17 9 NW 1020,3 42 0,0
17.06.2019 18:00:00 20,9 11,8 8 4 16 9 WSW 1020,6 44 0,0
17.06.2019 17:00:00 22,3 12,8 7 4 16 8 WSW 1020,7 39 0,0
17.06.2019 16:00:00 21,5 12,1 9 5 21 12 S 1021,0 28 0,0
17.06.2019 15:00:00 20,7 11,6 10 6 18 10 SW 1021,1 33 0,0
17.06.2019 14:00:00 20,4 10,8 10 6 19 10 WSW 1021,1 40 0,0
17.06.2019 13:00:00 21,4 12,3 5 3 16 9 NW 1021,2 38 0,0
17.06.2019 12:00:00 20,9 12,6 6 3 16 9 W 1021,3 35 0,0
17.06.2019 11:00:00 20,1 11,6 11 6 21 12 SW 1021,6 34 0,0
17.06.2019 10:00:00 18,5 11,8 8 4 15 8 W 1021,5 41 0,0
17.06.2019 09:00:00 17,8 11,8 7 4 14 8 W 1021,2 37 0,0
17.06.2019 08:00:00 17,2 12,3 8 4 14 8 W 1020,8 39 0,0
17.06.2019 07:00:00 15,8 13,6 6 3 11 6 WSW 1020,5 31 0,0
17.06.2019 06:00:00 13,8 13,0 5 3 8 4 SW 1020,6 13 0,0
17.06.2019 05:00:00 11,9 11,0 0 0 0 0 N 1020,5 11 0,0
17.06.2019 04:00:00 12,4 11,3 0 0 6 3 N 1020,5 18 0,0
17.06.2019 03:00:00 13,6 12,0 6 3 10 5 SW 1020,2 43 0,0
17.06.2019 02:00:00 12,9 11,5 3 1 6 3 SW 1019,9 28 0,0
17.06.2019 01:00:00 13,3 11,9 0 0 5 3 N 1019,8 33 0,0
17.06.2019 00:00:00 13,9 11,4 0 0 8 5 N 1019,8 43 0,0
16.06.2019 23:00:00 15,4 11,6 5 3 9 5 WSW 1019,4 46 0,0
16.06.2019 22:00:00 16,5 11,4 4 2 16 8 WSW 1019,0 50 0,0
16.06.2019 21:00:00 18,2 11,5 6 4 19 10 W 1018,8 50 0,0
16.06.2019 20:00:00 18,5 11,1 10 5 19 10 W 1018,8 49 0,0
16.06.2019 19:00:00 18,7 11,0 14 7 21 12 WNW 1018,9 46 0,0
16.06.2019 18:00:00 19,9 10,6 10 5 28 15 NW 1018,7 41 0,0
16.06.2019 17:00:00 20,5 10,0 16 9 30 16 WNW 1018,6 35 0,0
16.06.2019 16:00:00 20,8 10,9 15 8 28 15 NW 1018,6 36 0,0
16.06.2019 15:00:00 20,8 10,0 16 9 30 16 WNW 1018,3 33 0,0
16.06.2019 14:00:00 20,3 11,0 17 9 32 17 NW 1018,0 36 0,0
16.06.2019 13:00:00 18,7 10,8 16 8 34 19 NW 1017,7 39 0,0
16.06.2019 12:00:00 19,0 11,8 16 9 31 17 NW 1017,2 47 0,0
16.06.2019 11:00:00 16,5 13,0 10 5 27 15 WNW 1016,6 38 0,0
16.06.2019 10:00:00 15,3 13,0 14 8 27 15 W 1015,9 34 0,0
16.06.2019 09:00:00 15,1 13,5 15 8 26 14 W 1015,4 35 0,0
16.06.2019 08:00:00 15,1 14,1 10 5 22 12 W 1014,8 13 0,0
16.06.2019 07:00:00 15,4 14,6 5 3 21 11 W 1014,0 7 0,4
16.06.2019 06:00:00 15,1 14,1 0 0 - - N 1013,6 1,8 0,0
16.06.2019 05:00:00 15,4 13,8 0 0 - - N 1013,2 13 0,0
16.06.2019 04:00:00 15,6 13,6 0 0 0 0 N 1012,9 25 0,0
16.06.2019 03:00:00 15,6 13,3 0 0 10 5 N 1013,0 31 0,0
16.06.2019 02:00:00 15,8 12,9 6 3 13 7 E 1012,9 38 0,0
16.06.2019 01:00:00 15,9 13,0 3 1 10 5 E 1013,2 38 0,0
16.06.2019 00:00:00 15,8 13,6 0 0 0 0 N 1012,7 45 0,0
15.06.2019 23:00:00 15,7 13,4 4 2 10 5 NE 1012,3 43 0,0
15.06.2019 22:00:00 16,4 13,1 3 2 24 13 SE 1012,0 50 0,0
15.06.2019 21:00:00 16,8 12,9 14 8 36 20 E 1011,0 37 0,0
15.06.2019 20:00:00 18,5 12,7 15 8 41 22 E 1011,0 50 0,0
15.06.2019 19:00:00 19,1 14,6 16 9 43 23 E 1011,4 37 0,0
15.06.2019 18:00:00 18,9 12,9 16 8 34 18 E 1011,3 42 0,0
15.06.2019 17:00:00 16,7 12,0 16 9 40 22 E 1011,7 46 0,0
15.06.2019 16:00:00 15,7 12,8 23 13 59 32 E 1011,8 27 3,8
15.06.2019 15:00:00 16,3 13,6 10 5 20 11 E 1015,2 8 1,6
15.06.2019 14:00:00 17,3 12,6 6 3 16 9 E 1015,8 20 0,4
15.06.2019 13:00:00 20,1 11,3 8 4 33 18 ESE 1014,9 49 0,0
15.06.2019 12:00:00 22,3 12,5 14 7 29 15 ESE 1014,3 45 0,0
15.06.2019 11:00:00 21,9 12,7 11 6 31 17 E 1014,5 40 0,0
15.06.2019 10:00:00 22,6 13,1 14 7 29 16 ESE 1014,8 41 0,0
15.06.2019 09:00:00 21,5 15,3 10 6 28 15 ESE 1015,1 42 0,0
15.06.2019 08:00:00 20,3 14,6 14 7 24 13 ESE 1014,9 30 0,0
15.06.2019 07:00:00 18,4 13,7 9 5 21 11 ESE 1015,5 39 0,0
15.06.2019 06:00:00 16,2 11,8 10 5 24 13 ESE 1015,8 50 0,0
15.06.2019 05:00:00 16,1 11,1 10 5 22 12 ESE 1016,3 45 0,0
15.06.2019 04:00:00 15,5 9,8 9 5 20 11 ESE 1016,7 50 0,0
15.06.2019 03:00:00 15,6 10,8 9 5 19 10 ESE 1017,2 50 0,0
15.06.2019 02:00:00 15,6 12,0 8 5 16 9 E 1017,7 50 0,0
15.06.2019 01:00:00 15,1 13,0 6 3 19 10 ENE 1018,0 50 0,0
15.06.2019 00:00:00 15,2 13,0 5 3 14 8 ENE 1018,8 43 0,3
14.06.2019 23:00:00 16,0 13,1 0 0 21 11 N 1019,0 50 0,0
14.06.2019 22:00:00 18,6 12,1 9 5 20 11 SSW 1019,9 50 0,0
14.06.2019 21:00:00 18,9 11,9 0 0 11 6 N 1018,6 50 0,0
14.06.2019 20:00:00 20,5 11,7 4 2 24 13 SSE 1018,5 50 0,0
14.06.2019 19:00:00 21,4 12,5 10 5 24 13 SE 1018,0 49 0,0
14.06.2019 18:00:00 23,6 12,9 11 6 24 13 SE 1017,9 37 0,0
14.06.2019 17:00:00 23,4 12,1 11 6 23 12 SSE 1018,4 30 0,0
14.06.2019 16:00:00 23,3 11,0 13 7 24 13 S 1019,0 40 0,0
14.06.2019 15:00:00 23,6 11,0 11 6 23 13 S 1019,1 44 0,0
14.06.2019 14:00:00 22,8 10,9 15 8 26 14 S 1019,2 36 0,0
14.06.2019 13:00:00 22,3 12,5 13 7 22 12 SSE 1019,2 33 0,0
14.06.2019 12:00:00 21,5 12,4 13 7 24 13 S 1019,2 34 0,0
14.06.2019 11:00:00 20,1 11,6 12 6 23 12 S 1018,9 48 0,0
14.06.2019 10:00:00 19,2 11,7 13 7 21 12 S 1018,7 30 0,0
14.06.2019 09:00:00 18,5 13,4 11 6 18 10 S 1018,4 32 0,0
14.06.2019 08:00:00 16,9 12,8 8 4 15 8 SSE 1017,8 35 0,0
14.06.2019 07:00:00 15,2 13,4 3 1 16 9 SE 1017,6 37 0,0
14.06.2019 06:00:00 13,9 12,8 5 3 16 9 SSE 1017,0 37 0,0
14.06.2019 05:00:00 13,7 12,4 4 2 29 16 SSE 1017,1 47 0,2
14.06.2019 04:00:00 13,8 12,4 12 7 23 13 S 1017,7 17 0,1
14.06.2019 03:00:00 13,7 12,1 7 4 23 12 SE 1016,4 50 1,6
14.06.2019 02:00:00 13,8 12,4 5 3 18 10 SSE 1017,3 46 2,2
14.06.2019 01:00:00 14,2 12,6 17 9 35 19 SSW 1017,6 6 1,6
14.06.2019 00:00:00 13,8 12,4 0 0 14 7 N 1015,7 17 0,4

tt = Température de l'air
td = dewpoint
ff = Vitesse du vent
fx = gusts
dd = Direction du vent
ppp = reduced air pressure
vv = visibility
rr = Quantités de précipitations

stations d'obs. à proximité